Date String (YYYY-MM-DD hh:mm:ss) UTC,Instrument flags,absolute air pressure of the measurement (hPa),sample flow rate (lpm),inlet stack bypass flow (lpm),air temperature of the measurement (°C),ambient temperature measured by the external sensor (°C),aerosol sample conditioner tube jacket temperature (°C),OPC LED temperature (°C),internal box temperature (°C),relative humidity of the measurement (%),span deviation,mass concentration of particles derived from Lorenz-Mie calculation of OPC scattering (μg/m³),mass concentration of particles derived from Lorenz-Mie calculation of OPC scattering (μg/m³),mass concentration of particles derived from Lorenz-Mie calculation of OPC scattering (μg/m³)
DateTimeUTC,F1_M11,P_M11,Q1_M11,Q2_M11,T1_M11,T2_M11,T3_M11,T4_M11,T5_M11,U1_M11,ZSPAN_M11,X0_M11,X2_M11,X1_M11
2024-06-17 03:00:00,SystemResetWarning,0822.1,5.00,000.00,029.1,028.3,000.0,037.3,031.0,031.4,0000.0,0022.97,0006.35,0004.60
2024-06-17 03:01:00,SystemResetWarning,0822.2,5.00,000.00,029.2,028.6,000.0,037.3,031.1,031.3,0000.0,0022.79,0006.36,0004.60
2024-06-17 03:02:00,SystemResetWarning,0822.1,4.99,000.00,029.3,028.8,000.0,037.4,031.2,031.1,0000.0,0023.51,0006.40,0004.61
2024-06-17 03:03:00,SystemResetWarning,0822.2,4.99,000.00,029.4,029.0,000.0,037.4,031.3,030.9,0000.0,0024.33,0006.43,0004.61
2024-06-17 03:04:00,SystemResetWarning,0822.2,4.99,000.00,029.5,029.1,000.0,037.5,031.4,030.9,0000.0,0025.56,0006.42,0004.61
2024-06-17 03:05:00,SystemResetWarning,0822.1,4.99,000.00,029.5,028.0,000.0,037.6,030.8,031.1,0000.0,0025.30,0006.47,0004.63
2024-06-17 03:06:00,SystemResetWarning,0822.1,5.00,000.00,029.1,025.8,000.0,037.6,029.8,031.8,0000.0,0024.24,0006.50,0004.64
2024-06-17 03:07:00,SystemResetWarning,0822.1,5.01,000.00,028.7,025.3,000.0,037.5,029.4,032.4,0000.0,0024.49,0006.57,0004.67
2024-06-17 03:08:00,SystemResetWarning,0822.1,5.01,000.00,028.6,025.7,000.0,037.4,029.6,032.7,0000.0,0024.97,0006.62,0004.68
2024-06-17 03:09:00,SystemResetWarning,0822.1,5.00,000.00,028.6,026.2,000.0,037.3,029.9,032.8,0000.0,0022.86,0006.66,0004.71
2024-06-17 03:10:00,SystemResetWarning,0822.1,5.00,000.00,028.7,026.7,000.0,037.3,030.2,032.8,0000.0,0023.11,0006.62,0004.73
2024-06-17 03:11:00,SystemResetWarning,0822.2,5.00,000.00,028.7,027.2,000.0,037.2,030.4,032.7,0000.0,0024.47,0006.57,0004.73
2024-06-17 03:12:00,SystemResetWarning,0822.2,5.00,000.00,028.8,027.6,000.0,037.2,030.5,032.6,0000.0,0026.98,0006.56,0004.73
2024-06-17 03:13:00,SystemResetWarning,0822.2,4.99,000.00,028.9,027.9,000.0,037.2,030.7,032.5,0000.0,0027.65,0006.55,0004.73
2024-06-17 03:14:00,SystemResetWarning,0822.3,5.00,000.00,029.0,028.2,000.0,037.2,030.8,032.5,0000.0,0027.26,0006.54,0004.73
2024-06-17 03:15:00,SystemResetWarning,0822.3,5.00,000.00,029.0,028.4,000.0,037.2,030.9,032.3,0000.0,0027.48,0006.53,0004.73
2024-06-17 03:16:00,SystemResetWarning,0822.2,5.00,000.00,029.1,028.6,000.0,037.3,031.0,032.2,0000.0,0026.65,0006.46,0004.73
2024-06-17 03:17:00,SystemResetWarning,0822.3,5.00,000.00,029.2,028.8,000.0,037.3,031.1,032.2,0000.0,0027.81,0006.45,0004.73
2024-06-17 03:18:00,SystemResetWarning,0822.4,5.00,000.00,029.3,028.9,000.0,037.4,031.2,032.2,0000.0,0028.30,0006.41,0004.71
2024-06-17 03:19:00,SystemResetWarning,0822.4,5.00,000.00,029.4,029.1,000.0,037.4,031.3,032.2,0000.0,0027.75,0006.44,0004.70
2024-06-17 03:20:00,SystemResetWarning,0822.4,4.99,000.00,029.5,029.2,000.0,037.5,031.4,032.1,0000.0,0028.11,0006.44,0004.67
2024-06-17 03:21:00,SystemResetWarning,0822.4,4.99,000.00,029.6,029.0,000.0,037.5,031.3,032.0,0000.0,0028.42,0006.50,0004.66
2024-06-17 03:22:00,SystemResetWarning,0822.4,5.00,000.00,029.3,026.8,000.0,037.6,030.3,032.4,0000.0,0028.61,0006.55,0004.67
2024-06-17 03:23:00,SystemResetWarning,0822.3,5.01,000.00,028.9,025.3,000.0,037.6,029.5,033.2,0000.0,0026.96,0006.58,0004.66
2024-06-17 03:24:00,SystemResetWarning,0822.3,5.02,000.00,028.7,025.4,000.0,037.5,029.4,033.8,0000.0,0026.46,0006.60,0004.66
2024-06-17 03:25:00,SystemResetWarning,0822.4,4.99,000.00,028.6,025.8,000.0,037.4,029.7,033.9,0000.0,0026.33,0006.67,0004.67
2024-06-17 03:26:00,SystemResetWarning,0822.4,5.00,000.00,028.6,026.4,000.0,037.3,030.0,034.0,0000.0,0024.17,0006.69,0004.67
2024-06-17 03:27:00,SystemResetWarning,0822.5,5.01,000.00,028.7,026.9,000.0,037.3,030.2,033.8,0000.0,0023.62,0006.71,0004.67
2024-06-17 03:28:00,SystemResetWarning,0822.4,5.00,000.00,028.7,027.3,000.0,037.2,030.4,033.7,0000.0,0022.10,0006.65,0004.66
2024-06-17 03:29:00,SystemResetWarning,0822.5,5.00,000.00,028.8,027.7,000.0,037.2,030.6,033.6,0000.0,0022.21,0006.62,0004.65
2024-06-17 03:30:00,SystemResetWarning,0822.4,5.01,000.00,028.9,028.0,000.0,037.2,030.7,033.5,0000.0,0022.16,0006.58,0004.65
2024-06-17 03:31:00,SystemResetWarning,0822.4,5.00,000.00,029.0,028.2,000.0,037.2,030.8,033.2,0000.0,0023.72,0006.49,0004.64
2024-06-17 03:32:00,SystemResetWarning,0822.5,5.00,000.00,029.1,028.4,000.0,037.3,031.0,033.0,0000.0,0023.32,0006.47,0004.63
2024-06-17 03:33:00,SystemResetWarning,0822.5,5.00,000.00,029.1,028.6,000.0,037.3,031.1,032.9,0000.0,0021.88,0006.44,0004.61
2024-06-17 03:34:00,SystemResetWarning,0822.5,5.00,000.00,029.2,028.8,000.0,037.3,031.2,032.9,0000.0,0021.71,0006.40,0004.60
2024-06-17 03:35:00,SystemResetWarning,0823.0,5.00,000.00,029.3,028.9,000.0,037.4,031.2,032.7,0000.0,0020.91,0006.32,0004.57
2024-06-17 03:36:00,SystemResetWarning,0823.1,5.00,000.00,029.4,029.1,000.0,037.4,031.3,032.4,0000.0,0021.58,0006.28,0004.55
2024-06-17 03:37:00,SystemResetWarning,0822.8,5.01,000.00,029.5,029.2,000.0,037.5,031.4,032.2,0000.0,0024.03,0006.25,0004.52
2024-06-17 03:38:00,SystemResetWarning,0822.6,5.01,000.00,029.6,029.3,000.0,037.5,031.5,032.0,0000.0,0024.31,0006.22,0004.50
2024-06-17 03:39:00,SystemResetWarning,0822.7,4.98,000.00,029.6,028.4,000.0,037.6,031.0,032.0,0000.0,0024.75,0006.20,0004.47
2024-06-17 03:40:00,SystemResetWarning,0822.8,5.02,000.00,029.2,026.0,000.0,037.6,029.9,032.7,0000.0,0024.30,0006.20,0004.46
2024-06-17 03:41:00,SystemResetWarning,0822.5,5.01,000.00,028.8,025.1,000.0,037.6,029.4,033.3,0000.0,0024.12,0006.15,0004.44
2024-06-17 03:42:00,SystemResetWarning,0822.8,5.00,000.00,028.6,025.5,000.0,037.5,029.5,033.6,0000.0,0023.07,0006.19,0004.44
2024-06-17 03:43:00,SystemResetWarning,0823.0,5.00,000.00,028.6,026.0,000.0,037.4,029.8,033.8,0000.0,0022.84,0006.23,0004.44
2024-06-17 03:44:00,SystemResetWarning,0822.6,5.01,000.00,028.6,026.5,000.0,037.3,030.0,033.7,0000.0,0022.24,0006.16,0004.43
2024-06-17 03:45:00,SystemResetWarning,0822.6,5.00,000.00,028.7,027.0,000.0,037.3,030.3,033.6,0000.0,0022.60,0006.13,0004.42
2024-06-17 03:46:00,SystemResetWarning,0822.6,5.00,000.00,028.8,027.4,000.0,037.2,030.5,033.5,0000.0,0023.72,0006.21,0004.43
2024-06-17 03:47:00,SystemResetWarning,0822.8,4.99,000.00,028.8,027.7,000.0,037.2,030.6,033.4,0000.0,0023.29,0006.18,0004.44
2024-06-17 03:48:00,SystemResetWarning,0822.7,4.99,000.00,028.9,028.0,000.0,037.2,030.7,033.2,0000.0,0021.43,0006.10,0004.43
2024-06-17 03:49:00,SystemResetWarning,0822.7,5.00,000.00,029.0,028.3,000.0,037.2,030.9,032.9,0000.0,0023.04,0006.12,0004.41
2024-06-17 03:50:00,SystemResetWarning,0822.6,5.00,000.00,029.1,028.5,000.0,037.3,031.0,032.7,0000.0,0024.00,0006.10,0004.41
2024-06-17 03:51:00,SystemResetWarning,0822.7,5.00,000.00,029.2,028.7,000.0,037.3,031.1,032.4,0000.0,0023.53,0006.14,0004.40
2024-06-17 03:52:00,SystemResetWarning,0822.7,5.00,000.00,029.2,028.8,000.0,037.3,031.2,032.2,0000.0,0023.24,0006.11,0004.39
2024-06-17 03:53:00,SystemResetWarning,0822.8,5.00,000.00,029.3,028.9,000.0,037.4,031.3,032.1,0000.0,0023.44,0006.02,0004.37
2024-06-17 03:54:00,SystemResetWarning,0822.8,5.00,000.00,029.4,029.0,000.0,037.4,031.4,032.0,0000.0,0023.59,0005.93,0004.34
2024-06-17 03:55:00,SystemResetWarning,0822.8,5.00,000.00,029.5,029.2,000.0,037.5,031.4,031.8,0000.0,0024.11,0005.95,0004.34
2024-06-17 03:56:00,SystemResetWarning,0822.8,5.00,000.00,029.6,029.3,000.0,037.5,031.5,031.7,0000.0,0023.86,0005.95,0004.33
2024-06-17 03:57:00,SystemResetWarning,0822.8,4.99,000.00,029.6,029.3,000.0,037.6,031.5,031.5,0000.0,0023.51,0005.90,0004.31
2024-06-17 03:58:00,SystemResetWarning,0822.8,4.98,000.00,029.5,027.6,000.0,037.7,030.7,031.7,0000.0,0023.24,0005.92,0004.29
2024-06-17 03:59:00,SystemResetWarning,0822.8,5.03,000.00,029.1,026.2,000.0,037.7,030.0,032.4,0000.0,0023.66,0005.99,0004.28
